Weather History for Glencoe, MN

Change the Weather History Date:

Tuesday, April 9, 2013

  Actual Average (KHCD) Record (KHCD)
Temperature  
Mean Temperature 36 °F -  
Max Temperature 40 °F 52 °F 81 °F (1977)
Min Temperature 31 °F 31 °F 8 °F (1997)
Degree Days  
Heating Degree Days 30    
Moisture  
Dew Point 31 °F    
Average Humidity 82    
Maximum Humidity 96    
Minimum Humidity 63    
Precipitation  
Precipitation 0.35 in - - ()
Sea Level Pressure  
Sea Level Pressure 30.04 in    
Wind  
Wind Speed 9 mph (NNE)    
Max Wind Speed 17 mph    
Max Gust Speed 28 mph    
Visibility 8 miles    
Events Rain , Snow , Thunderstorm    
Averages and records for this station are not official NWS values.
T = Trace of Precipitation, MM = Missing Value Source: NWS Daily Summary

Daily Weather History Graph

Daily Weather History Graph

Search for Another Location

Airport:

Trip Planner

Search our weather history database for the weather conditions in past years. The results will help you decide how hot, cold, wet, or windy it might be!

Date:

Astronomy

Apr. 09, 2013 Rise Set
Actual Time 6:42 AM CDT 7:54 PM CDT
Civil Twilight 6:12 AM CDT 8:24 PM CDT
Nautical Twilight 5:36 AM CDT 9:00 PM CDT
Astronomical Twilight 4:57 AM CDT 9:39 PM CDT
Moon 6:06 AM CDT (4/9) 7:31 PM CDT (4/9)
Length of Visible Light 14h 12m
Length of Day
13h 12m
Waning Crescent, 1% of the Moon is Illuminated
Apr 9
Waning Crescent
Apr 10
New
Apr 18
First Quarter
Apr 25
Full
May 2
Last Quarter

Hourly Weather History & Observations

Time (CDT) Temp. Windchill Dew Point Humidity Pressure Visibility Wind Dir Wind Speed Gust Speed Precip Events Conditions
12:15 AM 39.4 °F 33.8 °F 36.1 °F 88% 30.02 in 10.0 mi NNE 8.1 mph - N/A   Overcast
12:34 AM 39.4 °F 33.8 °F 36.0 °F 88% 30.02 in 10.0 mi NNE 8.1 mph - N/A   Overcast
12:54 AM 39.2 °F 35.0 °F 35.6 °F 87% 30.01 in 10.0 mi NNE 5.8 mph - N/A   Overcast
1:14 AM 39.0 °F 33.4 °F 35.6 °F 88% 30.01 in 10.0 mi NNE 8.1 mph - N/A   Overcast
1:35 AM 38.8 °F 33.8 °F 35.1 °F 86% 30.01 in 10.0 mi NNE 6.9 mph 18.4 mph N/A   Overcast
1:55 AM 38.8 °F 33.2 °F 34.9 °F 86% 30.02 in 10.0 mi NNE 8.1 mph - N/A   Overcast
2:14 AM 38.7 °F 32.4 °F 34.7 °F 86% 30.00 in 10.0 mi NNE 9.2 mph 21.9 mph N/A   Overcast
2:34 AM 38.3 °F 31.9 °F 34.7 °F 87% 29.98 in 10.0 mi NNE 9.2 mph 17.3 mph N/A   Overcast
2:55 AM 37.8 °F 30.7 °F 34.2 °F 87% 29.96 in 10.0 mi North 10.4 mph 17.3 mph N/A   Overcast
3:14 AM 37.4 °F 32.1 °F 34.0 °F 87% 30.00 in 10.0 mi NNE 6.9 mph 17.3 mph N/A   Overcast
3:34 AM 37.4 °F 30.3 °F 33.8 °F 87% 29.99 in 10.0 mi North 10.4 mph 21.9 mph N/A   Overcast
3:54 AM 37.4 °F 32.8 °F 33.4 °F 86% 30.01 in 10.0 mi NNE 5.8 mph 9.2 mph N/A   Overcast
4:14 AM 37.4 °F 32.1 °F 33.1 °F 84% 30.03 in 10.0 mi NNE 6.9 mph - N/A   Overcast
4:35 AM 37.2 °F 30.6 °F 32.9 °F 84% 30.01 in 10.0 mi NNE 9.2 mph 18.4 mph N/A   Overcast
4:54 AM 37.0 °F 29.8 °F 32.7 °F 84% 30.02 in 10.0 mi North 10.4 mph 17.3 mph N/A   Overcast
5:14 AM 36.7 °F 29.4 °F 32.9 °F 86% 30.00 in 10.0 mi NNE 10.4 mph 19.6 mph N/A   Overcast
5:35 AM 36.5 °F 28.7 °F 32.4 °F 85% 30.03 in 10.0 mi NNE 11.5 mph 17.3 mph N/A   Overcast
5:55 AM 36.5 °F 29.2 °F 32.2 °F 84% 30.02 in 10.0 mi NNE 10.4 mph 20.7 mph N/A   Overcast
6:14 AM 36.5 °F 27.8 °F 32.2 °F 84% 30.01 in 10.0 mi NNE 13.8 mph 20.7 mph N/A Rain Light Rain
6:34 AM 36.0 °F 28.5 °F 32.4 °F 87% 30.01 in 10.0 mi NNE 10.4 mph 17.3 mph N/A   Overcast
6:55 AM 36.0 °F 26.7 °F 32.0 °F 86% 30.01 in 10.0 mi North 15.0 mph 23.0 mph N/A   Overcast
7:14 AM 35.2 °F 27.6 °F 32.0 °F 88% 30.03 in 5.0 mi North 10.4 mph 16.1 mph 0.01 in Rain Light Rain
7:34 AM 34.0 °F 24.6 °F 31.8 °F 92% 30.02 in 5.0 mi North 13.8 mph 21.9 mph 0.02 in Rain Light Rain
7:54 AM 33.1 °F 23.4 °F 30.7 °F 91% 30.02 in 7.0 mi North 13.8 mph 23.0 mph 0.03 in Rain Light Rain
8:15 AM 32.5 °F 21.5 °F 30.2 °F 91% 30.01 in 7.0 mi North 17.3 mph 26.5 mph N/A Rain Light Rain
8:34 AM 32.4 °F 22.5 °F 29.8 °F 90% 30.01 in 7.0 mi NNE 13.8 mph 23.0 mph N/A Rain Rain
8:54 AM 32.2 °F 23.8 °F 29.5 °F 90% 30.01 in 5.0 mi North 10.4 mph 17.3 mph 0.02 in Rain Rain
9:14 AM 32.2 °F 22.3 °F 29.7 °F 90% 30.02 in 5.0 mi North 13.8 mph 20.7 mph 0.01 in Rain Light Rain
9:35 AM 32.2 °F 24.4 °F 29.7 °F 90% 30.03 in 5.0 mi North 9.2 mph 17.3 mph 0.03 in Rain Light Rain
9:54 AM 32.0 °F 23.6 °F 29.5 °F 90% 30.04 in 4.0 mi North 10.4 mph 17.3 mph 0.06 in   Overcast
10:14 AM 32.0 °F 23.6 °F 29.3 °F 90% 30.04 in 3.0 mi North 10.4 mph 17.3 mph 0.02 in Snow Light Snow
10:34 AM 32.0 °F 23.6 °F 29.1 °F 89% 30.05 in 4.0 mi North 10.4 mph 17.3 mph 0.05 in Snow Light Snow
10:55 AM 31.8 °F 23.3 °F 29.1 °F 90% 30.07 in 4.0 mi North 10.4 mph - 0.07 in Snow Light Snow
11:15 AM 31.8 °F 23.9 °F 28.9 °F 89% 30.08 in 4.0 mi North 9.2 mph 16.1 mph 0.02 in Snow Light Snow
11:34 AM 31.6 °F 23.1 °F 28.9 °F 90% 30.07 in 5.0 mi North 10.4 mph 16.1 mph 0.02 in   Overcast
11:54 AM 31.6 °F 23.1 °F 28.9 °F 90% 30.07 in 7.0 mi North 10.4 mph 18.4 mph 0.03 in   Overcast
12:14 PM 31.8 °F 23.9 °F 28.9 °F 89% 30.03 in 10.0 mi North 9.2 mph 16.1 mph N/A   Overcast
12:35 PM 32.0 °F 24.2 °F 28.6 °F 87% 30.06 in 10.0 mi North 9.2 mph 18.4 mph N/A   Overcast
12:54 PM 32.0 °F 23.0 °F 28.8 °F 88% 30.05 in 10.0 mi North 11.5 mph 18.4 mph N/A   Overcast
1:15 PM 32.2 °F 24.4 °F 28.8 °F 87% 30.05 in 10.0 mi North 9.2 mph - N/A   Light Drizzle
1:34 PM 33.8 °F 26.4 °F 30.2 °F 87% 30.03 in 10.0 mi North 9.2 mph 18.4 mph N/A Rain Light Rain
1:54 PM 34.5 °F 26.2 °F 30.9 °F 87% 30.03 in 10.0 mi North 11.5 mph 23.0 mph N/A Rain Light Rain
2:14 PM 36.0 °F 26.7 °F 31.5 °F 84% 30.01 in 10.0 mi North 15.0 mph 26.5 mph N/A   Overcast
2:35 PM 37.6 °F 28.4 °F 31.3 °F 78% 30.02 in 10.0 mi NNE 16.1 mph 27.6 mph N/A   Scattered Clouds
2:55 PM 39.2 °F 30.5 °F 31.3 °F 73% 30.03 in 10.0 mi North 16.1 mph 27.6 mph N/A   Scattered Clouds
3:14 PM 38.8 °F 31.6 °F 30.0 °F 71% 30.03 in 10.0 mi North 11.5 mph 24.2 mph N/A   Overcast
3:34 PM 39.4 °F 33.8 °F 29.8 °F 69% 30.04 in 10.0 mi NNE 8.1 mph 17.3 mph N/A   Overcast
3:55 PM 39.4 °F 32.3 °F 29.3 °F 67% 30.04 in 10.0 mi NNE 11.5 mph 18.4 mph N/A   Overcast
4:14 PM 39.4 °F 33.2 °F 29.1 °F 67% 30.05 in 10.0 mi NNE 9.2 mph 16.1 mph N/A   Overcast
4:34 PM 39.7 °F 33.2 °F 29.3 °F 66% 30.05 in 10.0 mi NNE 10.4 mph 18.4 mph N/A Thunderstorm Overcast
4:55 PM 40.1 °F 34.7 °F 29.3 °F 65% 30.07 in 10.0 mi NNE 8.1 mph 18.4 mph N/A   Overcast
5:14 PM 40.1 °F 33.6 °F 29.3 °F 65% 30.07 in 10.0 mi North 10.4 mph - N/A   Overcast
5:34 PM 40.3 °F 34.4 °F 29.8 °F 66% 30.07 in 10.0 mi North 9.2 mph - N/A   Overcast
5:55 PM 40.5 °F 35.8 °F 29.8 °F 66% 30.06 in 10.0 mi North 6.9 mph - N/A   Overcast
6:14 PM 40.5 °F 35.8 °F 30.0 °F 66% 30.05 in 10.0 mi NNE 6.9 mph - N/A   Overcast
6:34 PM 40.6 °F 34.8 °F 28.9 °F 63% 30.06 in 10.0 mi NNE 9.2 mph - N/A   Overcast
6:54 PM 40.5 °F 36.5 °F 29.1 °F 64% 30.06 in 10.0 mi NNE 5.8 mph - N/A   Overcast
7:14 PM 40.1 °F 33.6 °F 29.8 °F 67% 30.03 in 10.0 mi NNE 10.4 mph - N/A   Overcast
7:35 PM 40.1 °F 33.2 °F 28.6 °F 63% 30.03 in 10.0 mi NNE 11.5 mph 17.3 mph N/A   Overcast
7:55 PM 39.6 °F 32.1 °F 28.4 °F 64% 30.01 in 10.0 mi NNE 12.7 mph 23.0 mph N/A   Overcast
8:14 PM 39.4 °F 32.7 °F 27.9 °F 63% 30.01 in 10.0 mi NNE 10.4 mph 24.2 mph N/A   Overcast
8:35 PM 38.5 °F 31.6 °F 28.6 °F 68% 30.03 in 10.0 mi NNE 10.4 mph 19.6 mph N/A Rain Light Rain
8:54 PM 37.6 °F 31.0 °F 29.5 °F 73% 30.03 in 10.0 mi NNE 9.2 mph 17.3 mph 0.01 in Rain Light Rain
9:14 PM 37.4 °F 29.8 °F 30.2 °F 75% 30.04 in 10.0 mi NNE 11.5 mph 17.3 mph N/A Rain Light Rain
9:54 PM 36.1 °F 30.6 °F 29.7 °F 77% 30.09 in 7.0 mi NE 6.9 mph - 0.02 in Rain , Thunderstorm Rain
10:14 PM 35.2 °F 32.4 °F 30.4 °F 82% 30.14 in 5.0 mi NE 3.5 mph - 0.01 in Rain Light Rain
10:34 PM 34.7 °F 31.8 °F 30.2 °F 84% 30.15 in 7.0 mi NE 3.5 mph - 0.01 in Snow , Thunderstorm Light Thunderstorms and Snow
10:54 PM 33.1 °F 27.7 °F 31.1 °F 92% 30.15 in 1.5 mi NNE 5.8 mph - 0.03 in Snow Light Snow
11:14 PM 32.0 °F 23.6 °F 31.1 °F 96% 30.13 in 1.0 mi NNE 10.4 mph 17.3 mph 0.03 in Snow Snow
11:35 PM 32.0 °F 23.6 °F 31.1 °F 96% 30.14 in 1.0 mi NNE 10.4 mph 17.3 mph 0.07 in Snow Snow
11:54 PM 32.0 °F 26.4 °F 30.9 °F 96% 30.15 in 1.8 mi NNE 5.8 mph - 0.08 in Snow Light Snow